SQ4IXR-4 Weather Reports


time (UTC)temp
C
wind
direction
speed
KPH
gust
KPH
rain 1hr
cm
rain 24hr
cm
rain mn
cm
humidity
%
barometer
mb
20260508104832 12 0.0 0.0 0.00 0.00 0.00 10 1021.2
20260508103449 12 0.0 0.0 0.00 0.00 0.00 10 1021.1
20260508102107 13 0.0 0.0 0.00 0.00 0.00 10 1021.0
20260508100721 12 0.0 0.0 0.00 0.00 0.00 10 1021.0
20260508095337 12 0.0 0.0 0.00 0.00 0.00 10 1021.0
20260508093953 12 0.0 0.0 0.00 0.00 0.00 10 1021.1
20260508092611 12 0.0 0.0 0.00 0.00 0.00 10 1020.9
20260508091228 12 0.0 0.0 0.00 0.00 0.00 10 1020.9
20260508085843 12 0.0 0.0 0.00 0.00 0.00 10 1020.9
20260508084500 12 0.0 0.0 0.00 0.00 0.00 10 1020.7
20260508083118 12 0.0 0.0 0.00 0.00 0.00 10 1020.6
20260508081733 11 0.0 0.0 0.00 0.00 0.00 10 1020.5
20260508080349 11 0.0 0.0 0.00 0.00 0.00 10 1020.6
20260508075006 11 0.0 0.0 0.00 0.00 0.00 10 1020.4
20260508073621 11 0.0 0.0 0.00 0.00 0.00 10 1020.4
20260508072238 11 0.0 0.0 0.00 0.00 0.00 10 1020.3
20260508070856 11 0.0 0.0 0.00 0.00 0.00 10 1020.1
20260508065513 11 0.0 0.0 0.00 0.00 0.00 10 1020.0
20260508064130 11 0.0 0.0 0.00 0.00 0.00 10 1020.0
20260508062747 11 0.0 0.0 0.00 0.00 0.00 96 1019.9
20260508061404 11 0.0 0.0 0.00 0.00 0.00 97 1019.8
20260508060020 11 0.0 0.0 0.00 0.00 0.00 99 1019.6
20260508054637 11 0.0 0.0 0.00 0.00 0.00 10 1019.5
20260508053254 11 0.0 0.0 0.00 0.00 0.00 10 1019.6
20260508051910 11 0.0 0.0 0.00 0.00 0.00 10 1019.6
20260508050526 11 0.0 0.0 0.00 0.00 0.00 10 1019.5
20260508045142 10 0.0 0.0 0.00 0.00 0.00 10 1019.4
20260508043800 11 0.0 0.0 0.00 0.00 0.00 10 1019.5
20260508042416 11 0.0 0.0 0.00 0.00 0.00 10 1019.6
20260508041032 11 0.0 0.0 0.00 0.00 0.00 10 1019.4
20260508035649 11 0.0 0.0 0.00 0.00 0.00 10 1019.3
20260508034305 10 0.0 0.0 0.00 0.00 0.00 10 1019.3
20260508032922 11 0.0 0.0 0.00 0.00 0.00 10 1019.3
20260508031540 11 0.0 0.0 0.00 0.00 0.00 10 1019.1
20260508030155 11 0.0 0.0 0.00 0.00 0.00 10 1019.1
20260508024812 11 0.0 0.0 0.00 0.00 0.00 10 1019.1
20260508023429 11 0.0 0.0 0.00 0.00 0.00 10 1019.0
20260508022048 11 0.0 0.0 0.00 0.00 0.00 98 1019.0
20260508020702 11 0.0 0.0 0.00 0.00 0.00 97 1018.9
20260508015319 11 0.0 0.0 0.00 0.00 0.00 96 1018.8
20260508013936 11 0.0 0.0 0.00 0.00 0.00 96 1018.8
20260508012553 11 0.0 0.0 0.00 0.00 0.00 97 1018.8
20260508011210 11 0.0 0.0 0.00 0.00 0.00 94 1019.0
20260508005827 11 0.0 0.0 0.00 0.00 0.00 93 1018.9
20260508004442 11 0.0 0.0 0.00 0.00 0.00 92 1019.0
20260508003059 11 0.0 0.0 0.00 0.00 0.00 92 1019.0
20260508001715 11 0.0 0.0 0.00 0.00 0.00 92 1019.0
20260508000334 11 0.0 0.0 0.00 0.00 0.00 91 1018.9
20260507234949 11 0.0 0.0 0.00 0.00 0.00 90 1019.0
20260507233605 11 0.0 0.0 0.00 0.00 0.00 88 1018.9
20260507232221 11 0.0 0.0 0.00 0.00 0.00 88 1019.0
20260507230837 11 0.0 0.0 0.00 0.00 0.00 87 1018.9
20260507225454 11 0.0 0.0 0.00 0.00 0.00 88 1018.9
20260507224111 11 0.0 0.0 0.00 0.00 0.00 88 1019.0
20260507222726 11 0.0 0.0 0.00 0.00 0.00 88 1018.9
20260507221343 11 0.0 0.0 0.00 0.00 0.00 89 1018.6
20260507215959 12 0.0 0.0 0.00 0.00 0.00 89 1018.8
20260507214616 12 0.0 0.0 0.00 0.00 0.00 87 1018.7
20260507213233 12 0.0 0.0 0.00 0.00 0.00 85 1018.5
20260507211851 12 0.0 0.0 0.00 0.00 0.00 85 1018.6
20260507210508 12 0.0 0.0 0.00 0.00 0.00 85 1018.4
20260507205124 12 0.0 0.0 0.00 0.00 0.00 85 1018.4
20260507203741 12 0.0 0.0 0.00 0.00 0.00 86 1018.2
20260507202358 12 0.0 0.0 0.00 0.00 0.00 86 1018.3
20260507201014 12 0.0 0.0 0.00 0.00 0.00 87 1018.0
20260507194250 12 0.0 0.0 0.00 0.00 0.00 86 1017.9
20260507192904 12 0.0 0.0 0.00 0.00 0.00 87 1017.9
20260507191522 13 0.0 0.0 0.00 0.00 0.00 87 1017.9
20260507190138 13 0.0 0.0 0.00 0.00 0.00 86 1017.9
20260507184755 13 0.0 0.0 0.00 0.00 0.00 86 1017.4
20260507183412 13 0.0 0.0 0.00 0.00 0.00 85 1017.3
20260507182028 13 0.0 0.0 0.00 0.00 0.00 84 1017.2
20260507180646 13 0.0 0.0 0.00 0.00 0.00 83 1017.1
20260507175306 13 0.0 0.0 0.00 0.00 0.00 79 1016.8
20260507173919 14 0.0 0.0 0.00 0.00 0.00 80 1016.7
20260507172536 14 0.0 0.0 0.00 0.00 0.00 80 1016.5
20260507171151 14 0.0 0.0 0.00 0.00 0.00 78 1016.2
20260507165809 15 0.0 0.0 0.00 0.00 0.00 76 1016.1
20260507164427 15 0.0 0.0 0.00 0.00 0.00 75 1016.1
20260507163044 15 0.0 0.0 0.00 0.00 0.00 72 1015.8
20260507161700 16 0.0 0.0 0.00 0.00 0.00 70 1015.7
20260507160317 16 0.0 0.0 0.00 0.00 0.00 67 1015.7
20260507154935 17 0.0 0.0 0.00 0.00 0.00 63 1015.5
20260507153552 17 0.0 0.0 0.00 0.00 0.00 61 1015.3
20260507152210 18 0.0 0.0 0.00 0.00 0.00 60 1015.2
20260507150828 18 0.0 0.0 0.00 0.00 0.00 56 1015.3
20260507145445 19 0.0 0.0 0.00 0.00 0.00 55 1015.1
20260507144103 18 0.0 0.0 0.00 0.00 0.00 56 1015.1
20260507142722 20 0.0 0.0 0.00 0.00 0.00 52 1014.8
20260507141343 21 0.0 0.0 0.00 0.00 0.00 49 1014.6
20260507140001 21 0.0 0.0 0.00 0.00 0.00 46 1014.3
20260507134619 23 0.0 0.0 0.00 0.00 0.00 44 1014.2
20260507133236 24 0.0 0.0 0.00 0.00 0.00 41 1013.7
20260507131856 25 0.0 0.0 0.00 0.00 0.00 40 1013.4
20260507130513 26 0.0 0.0 0.00 0.00 0.00 36 1013.3
20260507125135 27 0.0 0.0 0.00 0.00 0.00 34 1013.0
20260507123754 28 0.0 0.0 0.00 0.00 0.00 32 1012.9
20260507122412 30 0.0 0.0 0.00 0.00 0.00 30 1012.9
20260507121026 33 0.0 0.0 0.00 0.00 0.00 26 1012.7
20260507115658 38 0.0 0.0 0.00 0.00 0.00 21 1012.3
20260507114301 31 0.0 0.0 0.00 0.00 0.00 30 1012.3
20260507112916 29 0.0 0.0 0.00 0.00 0.00 34 1012.2
20260507111534 30 0.0 0.0 0.00 0.00 0.00 32 1012.1